Flag for Switzerland Weather past 2 weeks in Montreux, Vaud, Switzerland

Now
85 °F

Passing clouds.


Feels Like: 86 °F
Forecast: 54 / 70 °F
Wind: No wind

Location: Aigle

Current Time: Jul 7, 2015 at 11:55:54 AM

Latest Report: Jul 7, 2015 at 11:00 AM


Visibility: 16 mi

Pressure: 29.91 "Hg

Humidity: 47%

Dew point: 63 °F

Location of MontreuxLocation

Historic Weather in Montreux — Graph

°F

Montreux temperature yesterday

Maximum temperature yesterday: 89 °F (at 5:00 PM)
Minimum temperature yesterday: 65 °F (at 6:00 AM)
Average temperature yesterday: 79 °F

Past Weeks' High & Low Weather Summary

 TemperatureHumidityPressure
High97 °F (Jul 5, 7:00 PM)97% (Jun 23, 7:00 AM)30.23 "Hg (Jun 23, 7:00 AM)
Low47 °F (Jun 24, 7:00 AM)16% (Jul 5, 7:00 PM)29.77 "Hg (Jun 22, 10:00 PM)
Average72 °F65%30.07 "Hg
* Reported Jun 22 10:00 AM — Jul 7 10:00 AM, Montreux, Weather by CustomWeather, © 2015

Note: Actual official high and low records may vary slightly from our data, if they occured in-between our weather recording intervals... More about our weather records

Advertising

Montreux weather history for previous 24 hours

 ConditionsComfort  
Time TempWeatherWind HumidityBarometerVisibility
10:00 AM
Tue, Jul 7
84 °FPleasantly warm.3 mph39%29.93 "HgN/A
9:00 AM78 °FWarm.No wind58%29.96 "HgN/A
8:00 AM72 °FPassing clouds.No wind68%29.98 "Hg12 mi
7:00 AM66 °FMild.1 mph84%30.01 "HgN/A
6:00 AM66 °FMild.1 mph83%30.01 "HgN/A
4:00 AM66 °FMild.1 mph83%30.01 "HgN/A
3:00 AM68 °FMild.5 mph84%30.01 "HgN/A
2:00 AM70 °FMild.2 mph82%30.01 "HgN/A
1:00 AM67 °FMild.2 mph86%30.02 "HgN/A
12:00 AM75 °FMild.5 mph67%29.99 "HgN/A
10:00 PM
Mon, Jul 6
78 °FWarm.3 mph66%29.98 "HgN/A
9:00 PM81 °FWarm.1 mph65%29.97 "HgN/A
8:00 PM85 °FPassing clouds.2 mph67%29.97 "Hg19 mi
7:00 PM89 °FHot.3 mph53%29.96 "HgN/A
6:00 PM88 °FHot.6 mph51%29.96 "HgN/A
5:00 PM89 °FHot.7 mph42%29.97 "HgN/A
4:00 PM87 °FWarm.7 mph52%29.99 "HgN/A
3:00 PM87 °FWarm.9 mph58%30.01 "HgN/A
2:00 PM85 °FScattered clouds.12 mph53%30.04 "Hg12 mi
1:00 PM84 °FWarm.12 mph58%30.06 "HgN/A
12:00 PM83 °FWarm.10 mph63%30.07 "HgN/A
11:00 AM82 °FPassing clouds.8 mph62%30.08 "Hg11 mi
Weather by CustomWeather, © 2015

See weather overviewHow to use our weather pages